Flag for France Weather past 2 weeks in Ajaccio, Corsica, France

Now
68 °F

Clear.


Feels Like: 68 °F
Forecast: 71 / 82 °F
Wind: 5 mph from Northeast

Location: Ajaccio Airport

Current Time: Aug 2, 2015 at 4:20:00 AM

Latest Report: Aug 2, 2015 at 4:00 AM


Visibility: 10 mi

Pressure: 29.98 "Hg

Humidity: 78%

Dew point: 61 °F

Location of AjaccioLocation

Historic Weather in Ajaccio — Graph

°F

Ajaccio temperature yesterday

Maximum temperature yesterday: 84 °F (at 12:30 PM)
Minimum temperature yesterday: 68 °F (at 1:30 AM)
Average temperature yesterday: 76 °F

Past Weeks' High & Low Weather Summary

 TemperatureHumidityPressure
High95 °F (Jul 19, 4:00 PM)89% (Jul 21, 1:30 AM)30.04 "Hg (Jul 21, 1:30 AM)
Low63 °F (Jul 29, 5:00 AM)30% (Jul 19, 5:00 PM)29.77 "Hg (Jul 24, 4:30 PM)
Average79 °F67%29.89 "Hg
* Reported Jul 18 3:00 AM — Aug 2 3:30 AM, Ajaccio, Weather by CustomWeather, © 2015

Note: Actual official high and low records may vary slightly from our data, if they occured in-between our weather recording intervals... More about our weather records

Advertising

Ajaccio weather history for previous 24 hours

 ConditionsComfort  
Time TempWeatherWind HumidityBarometerVisibility
3:30 AM
Sun, Aug 2
68 °FClear.6 mph78%29.98 "Hg10 mi
3:00 AM68 °FClear.5 mph83%29.98 "Hg10 mi
2:30 AM68 °FClear.6 mph83%29.98 "Hg10 mi
2:00 AM68 °FClear.6 mph83%30.01 "Hg10 mi
1:30 AM70 °FClear.6 mph78%29.98 "Hg10 mi
12:30 AM72 °FClear.3 mph78%29.98 "Hg10 mi
12:00 AM73 °FClear.3 mph74%29.98 "Hg10 mi
11:30 PM
Sat, Aug 1
73 °FPassing clouds.5 mph74%29.95 "HgN/A
11:00 PM73 °FPassing clouds.5 mph74%29.95 "HgN/A
10:30 PM75 °FClear.3 mph69%29.95 "Hg10 mi
10:00 PM77 °FClear.8 mph74%29.95 "Hg10 mi
9:30 PM77 °FSunny.6 mph74%29.92 "Hg10 mi
9:00 PM79 °FSunny.3 mph61%29.89 "Hg10 mi
8:30 PM79 °FSunny.1 mph61%29.89 "Hg10 mi
8:00 PM79 °FSunny.5 mph70%29.89 "Hg10 mi
7:30 PM79 °FSunny.7 mph65%29.92 "Hg10 mi
7:00 PM81 °FSunny.7 mph62%29.92 "Hg10 mi
6:30 PM81 °FSunny.6 mph62%29.92 "Hg10 mi
6:00 PM82 °FBroken clouds.5 mph62%29.92 "HgN/A
5:00 PM81 °FPartly sunny.12 mph74%29.92 "HgN/A
4:30 PM82 °FBroken clouds.6 mph55%29.92 "HgN/A
4:00 PM82 °FPartly sunny.7 mph66%29.92 "HgN/A
3:30 PM81 °FPartly sunny.12 mph70%29.92 "HgN/A
3:00 PM81 °FBroken clouds.13 mph79%29.92 "HgN/A
2:30 PM82 °FBroken clouds.12 mph70%29.92 "HgN/A
2:00 PM84 °FBroken clouds.12 mph70%29.92 "HgN/A
1:30 PM82 °FBroken clouds.12 mph74%29.89 "HgN/A
1:00 PM84 °FBroken clouds.8 mph70%29.89 "HgN/A
12:30 PM84 °FBroken clouds.7 mph66%29.89 "HgN/A
12:00 PM81 °FBroken clouds.5 mph74%29.89 "HgN/A
11:30 AM81 °FBroken clouds.6 mph74%29.92 "HgN/A
11:00 AM81 °FBroken clouds.3 mph70%29.92 "HgN/A
10:30 AM81 °FPartly sunny.3 mph66%29.92 "HgN/A
10:00 AM79 °FBroken clouds.5 mph70%29.92 "HgN/A
9:30 AM79 °FPartly sunny.3 mph70%29.92 "HgN/A
9:00 AM79 °FBroken clouds.7 mph70%29.89 "HgN/A
8:30 AM77 °FPartly sunny.13 mph69%29.89 "HgN/A
8:00 AM79 °FPartly sunny.9 mph65%29.86 "HgN/A
7:30 AM72 °FPartly sunny.9 mph65%29.80 "HgN/A
7:00 AM70 °FPassing clouds.5 mph69%29.83 "HgN/A
6:30 AM68 °FClear.7 mph73%29.83 "Hg10 mi
6:00 AM68 °FPassing clouds.5 mph78%29.86 "HgN/A
5:30 AM68 °FClear.2 mph73%29.86 "Hg10 mi
5:00 AM70 °FClear.1 mph69%29.86 "Hg10 mi
4:30 AM70 °FClear.5 mph69%29.86 "Hg10 mi
4:00 AM68 °FClear.7 mph73%29.86 "Hg10 mi
Weather by CustomWeather, © 2015

See weather overviewHow to use our weather pages